Time,TemperatureF,DewpointF,PressureIn,WindDirection,WindDirectionDegrees,WindSpeedMPH,WindSpeedGustMPH,Humidity,HourlyPrecipIn,Conditions,Clouds,dailyrainin,SoftwareType,DateUTC
2013-01-08 00:01:00,20.2,15.2,30.20,SE,135,0.0,0.4,81,0.00,,,0.00,WUHU216HW,2013-01-08 05:01:00,
2013-01-08 00:02:00,20.0,15.0,30.20,SE,135,0.0,0.4,81,0.00,,,0.00,WUHU216HW,2013-01-08 05:02:00,
2013-01-08 00:03:00,19.6,14.7,30.20,SE,135,0.0,0.4,81,0.00,,,0.00,WUHU216HW,2013-01-08 05:03:00,
2013-01-08 00:08:00,19.3,14.6,30.20,North,0,0.0,0.2,82,0.00,,,0.00,WUHU216HW,2013-01-08 05:08:00,
2013-01-08 00:13:00,19.4,14.8,30.20,SSE,158,0.4,0.4,82,0.00,,,0.00,WUHU216HW,2013-01-08 05:13:00,
2013-01-08 00:18:00,19.8,15.4,30.20,SSE,158,0.2,0.7,83,0.00,,,0.00,WUHU216HW,2013-01-08 05:18:00,
2013-01-08 00:23:00,19.8,15.4,30.19,ENE,68,0.0,0.7,83,0.00,,,0.00,WUHU216HW,2013-01-08 05:23:00,
2013-01-08 00:28:00,19.6,14.9,30.20,NNW,338,0.0,0.4,82,0.00,,,0.00,WUHU216HW,2013-01-08 05:28:00,
2013-01-08 00:33:00,19.8,15.1,30.20,NNW,338,0.0,0.4,82,0.00,,,0.00,WUHU216HW,2013-01-08 05:33:00,
2013-01-08 00:38:00,20.0,15.6,30.20,NNW,338,0.0,0.0,83,0.00,,,0.00,WUHU216HW,2013-01-08 05:38:00,
2013-01-08 00:43:00,20.2,15.5,30.20,WNW,293,0.0,0.2,82,0.00,,,0.00,WUHU216HW,2013-01-08 05:43:00,
2013-01-08 00:48:00,20.3,15.9,30.20,WNW,293,0.4,0.7,83,0.00,,,0.00,WUHU216HW,2013-01-08 05:48:00,
2013-01-08 00:53:00,20.7,16.6,30.19,NE,45,0.0,0.7,84,0.00,,,0.00,WUHU216HW,2013-01-08 05:53:00,
2013-01-08 00:58:00,20.7,16.6,30.19,ENE,68,0.0,0.2,84,0.00,,,0.00,WUHU216HW,2013-01-08 05:58:00,
2013-01-08 01:03:00,20.7,16.6,30.19,WNW,293,0.0,0.4,84,0.00,,,0.00,WUHU216HW,2013-01-08 06:03:00,
2013-01-08 01:08:00,20.9,16.7,30.19,SSE,158,0.4,1.1,84,0.00,,,0.00,WUHU216HW,2013-01-08 06:08:00,
2013-01-08 01:13:00,20.9,16.7,30.19,SSW,203,0.0,1.1,84,0.00,,,0.00,WUHU216HW,2013-01-08 06:13:00,
2013-01-08 01:18:00,21.2,17.1,30.19,SSW,203,0.0,0.7,84,0.00,,,0.00,WUHU216HW,2013-01-08 06:18:00,
2013-01-08 01:23:00,21.2,17.1,30.18,SSE,158,0.4,0.7,84,0.00,,,0.00,WUHU216HW,2013-01-08 06:23:00,
2013-01-08 01:28:00,21.4,17.3,30.18,SSE,158,1.1,1.6,84,0.00,,,0.00,WUHU216HW,2013-01-08 06:28:00,
2013-01-08 01:33:00,21.6,17.5,30.19,SSE,158,1.1,1.6,84,0.00,,,0.00,WUHU216HW,2013-01-08 06:33:00,
2013-01-08 01:38:00,21.4,17.0,30.19,ESE,113,0.9,2.0,83,0.00,,,0.00,WUHU216HW,2013-01-08 06:38:00,
2013-01-08 01:43:00,21.2,16.8,30.19,SE,135,0.4,2.0,83,0.00,,,0.00,WUHU216HW,2013-01-08 06:43:00,
2013-01-08 01:48:00,21.2,16.8,30.18,SSW,203,2.5,2.5,83,0.00,,,0.00,WUHU216HW,2013-01-08 06:48:00,
2013-01-08 01:53:00,21.4,17.0,30.19,SSE,158,0.9,2.5,83,0.00,,,0.00,WUHU216HW,2013-01-08 06:53:00,
2013-01-08 01:58:00,22.0,17.6,30.19,SSW,203,0.9,1.8,83,0.00,,,0.00,WUHU216HW,2013-01-08 06:58:00,
2013-01-08 02:03:00,22.5,18.1,30.19,SSE,158,2.2,2.2,83,0.00,,,0.00,WUHU216HW,2013-01-08 07:03:00,
2013-01-08 02:08:00,23.0,18.6,30.19,SSE,158,0.9,2.2,83,0.00,,,0.00,WUHU216HW,2013-01-08 07:08:00,
2013-01-08 02:13:00,23.4,18.7,30.20,South,180,1.1,1.8,82,0.00,,,0.00,WUHU216HW,2013-01-08 07:13:00,
2013-01-08 02:18:00,23.9,19.3,30.20,SE,135,0.7,1.8,82,0.00,,,0.00,WUHU216HW,2013-01-08 07:18:00,
2013-01-08 02:23:00,24.5,19.8,30.20,SSW,203,0.2,2.0,82,0.00,,,0.00,WUHU216HW,2013-01-08 07:23:00,
2013-01-08 02:28:00,25.7,21.0,30.20,ESE,113,0.4,2.0,82,0.00,,,0.00,WUHU216HW,2013-01-08 07:28:00,
2013-01-08 02:33:00,26.1,20.8,30.20,SE,135,1.1,1.1,80,0.00,,,0.00,WUHU216HW,2013-01-08 07:33:00,
2013-01-08 02:38:00,26.1,20.8,30.20,SW,225,0.4,1.3,80,0.00,,,0.00,WUHU216HW,2013-01-08 07:38:00,
2013-01-08 02:43:00,26.5,21.1,30.19,NW,315,0.7,1.6,80,0.00,,,0.00,WUHU216HW,2013-01-08 07:43:00,
2013-01-08 02:48:00,27.4,21.7,30.19,SSW,203,0.7,1.6,79,0.00,,,0.00,WUHU216HW,2013-01-08 07:48:00,
2013-01-08 02:53:00,28.3,22.2,30.19,NNW,338,3.4,3.4,78,0.00,,,0.00,WUHU216HW,2013-01-08 07:53:00,
2013-01-08 02:58:00,28.8,22.5,30.20,NW,315,0.0,3.4,77,0.00,,,0.00,WUHU216HW,2013-01-08 07:58:00,
2013-01-08 03:03:00,29.2,22.5,30.20,WNW,293,2.2,4.0,76,0.00,,,0.00,WUHU216HW,2013-01-08 08:03:00,
2013-01-08 03:08:00,29.5,22.5,30.20,North,0,0.0,4.0,75,0.00,,,0.00,WUHU216HW,2013-01-08 08:08:00,
2013-01-08 03:13:00,29.9,23.2,30.19,NNW,338,0.0,1.1,76,0.00,,,0.00,WUHU216HW,2013-01-08 08:13:00,
2013-01-08 03:18:00,29.9,23.2,30.19,NW,315,2.5,2.5,76,0.00,,,0.00,WUHU216HW,2013-01-08 08:18:00,
2013-01-08 03:23:00,30.2,22.2,30.19,WSW,248,1.1,2.5,72,0.00,,,0.00,WUHU216HW,2013-01-08 08:23:00,
2013-01-08 03:28:00,30.6,22.3,30.19,NNW,338,0.4,2.5,71,0.00,,,0.00,WUHU216HW,2013-01-08 08:28:00,
2013-01-08 03:33:00,30.6,22.0,30.19,South,180,2.0,2.5,70,0.00,,,0.00,WUHU216HW,2013-01-08 08:33:00,
2013-01-08 03:38:00,30.8,22.5,30.19,NW,315,1.8,2.0,71,0.00,,,0.00,WUHU216HW,2013-01-08 08:38:00,
2013-01-08 03:43:00,31.0,22.3,30.19,WSW,248,0.0,1.8,70,0.00,,,0.00,WUHU216HW,2013-01-08 08:43:00,
2013-01-08 03:48:00,31.1,22.5,30.19,NNE,23,0.4,1.6,70,0.00,,,0.00,WUHU216HW,2013-01-08 08:48:00,
2013-01-08 03:53:00,31.3,22.7,30.19,NW,315,1.8,2.5,70,0.00,,,0.00,WUHU216HW,2013-01-08 08:53:00,
2013-01-08 03:58:00,31.3,22.3,30.19,South,180,0.4,2.5,69,0.00,,,0.00,WUHU216HW,2013-01-08 08:58:00,
2013-01-08 04:03:00,31.3,22.7,30.19,SSW,203,0.2,1.1,70,0.00,,,0.00,WUHU216HW,2013-01-08 09:03:00,
2013-01-08 04:08:00,31.3,21.6,30.19,SE,135,3.1,3.1,67,0.00,,,0.00,WUHU216HW,2013-01-08 09:08:00,
2013-01-08 04:13:00,31.7,22.0,30.18,NW,315,1.1,3.1,67,0.00,,,0.00,WUHU216HW,2013-01-08 09:13:00,
2013-01-08 04:18:00,31.7,22.0,30.18,NNW,338,1.6,2.5,67,0.00,,,0.00,WUHU216HW,2013-01-08 09:18:00,
2013-01-08 04:23:00,31.9,22.1,30.18,West,270,0.2,3.6,67,0.00,,,0.00,WUHU216HW,2013-01-08 09:23:00,
2013-01-08 04:28:00,31.9,21.8,30.18,NW,315,2.0,3.6,66,0.00,,,0.00,WUHU216HW,2013-01-08 09:28:00,
2013-01-08 04:33:00,31.9,21.8,30.18,NW,315,1.3,2.0,66,0.00,,,0.00,WUHU216HW,2013-01-08 09:33:00,
2013-01-08 04:38:00,32.0,22.0,30.18,North,0,0.7,2.0,66,0.00,,,0.00,WUHU216HW,2013-01-08 09:38:00,
2013-01-08 04:43:00,32.0,22.0,30.18,SSE,158,0.7,2.5,66,0.00,,,0.00,WUHU216HW,2013-01-08 09:43:00,
2013-01-08 04:48:00,31.9,22.1,30.18,East,90,0.0,2.5,67,0.00,,,0.00,WUHU216HW,2013-01-08 09:48:00,
2013-01-08 04:53:00,31.9,22.1,30.18,NW,315,2.5,2.5,67,0.00,,,0.00,WUHU216HW,2013-01-08 09:53:00,
2013-01-08 04:58:00,31.9,21.8,30.19,NW,315,1.8,4.0,66,0.00,,,0.00,WUHU216HW,2013-01-08 09:58:00,
2013-01-08 05:03:00,31.9,21.8,30.19,North,0,0.4,4.0,66,0.00,,,0.00,WUHU216HW,2013-01-08 10:03:00,
2013-01-08 05:08:00,31.7,21.6,30.19,North,0,0.0,1.1,66,0.00,,,0.00,WUHU216HW,2013-01-08 10:08:00,
2013-01-08 05:13:00,31.7,22.0,30.19,West,270,0.9,1.1,67,0.00,,,0.00,WUHU216HW,2013-01-08 10:13:00,
2013-01-08 05:18:00,31.7,22.0,30.20,NNE,23,0.2,1.3,67,0.00,,,0.00,WUHU216HW,2013-01-08 10:18:00,
2013-01-08 05:23:00,31.7,22.0,30.20,North,0,1.6,1.6,67,0.00,,,0.00,WUHU216HW,2013-01-08 10:23:00,
2013-01-08 05:28:00,31.7,21.6,30.20,NNW,338,0.4,1.6,66,0.00,,,0.00,WUHU216HW,2013-01-08 10:28:00,
2013-01-08 05:33:00,31.5,21.8,30.20,SSE,158,0.4,1.6,67,0.00,,,0.00,WUHU216HW,2013-01-08 10:33:00,
2013-01-08 05:38:00,31.7,21.6,30.20,NNE,23,0.4,1.1,66,0.00,,,0.00,WUHU216HW,2013-01-08 10:38:00,
2013-01-08 05:43:00,31.7,21.6,30.20,South,180,0.9,1.1,66,0.00,,,0.00,WUHU216HW,2013-01-08 10:43:00,
2013-01-08 05:48:00,31.7,21.6,30.20,NW,315,0.4,1.3,66,0.00,,,0.00,WUHU216HW,2013-01-08 10:48:00,
2013-01-08 05:53:00,31.5,21.8,30.21,NNE,23,0.4,1.3,67,0.00,,,0.00,WUHU216HW,2013-01-08 10:53:00,
2013-01-08 05:58:00,31.5,21.4,30.21,North,0,0.9,1.8,66,0.00,,,0.00,WUHU216HW,2013-01-08 10:58:00,
2013-01-08 06:03:00,31.7,21.6,30.21,NNW,338,0.0,3.4,66,0.00,,,0.00,WUHU216HW,2013-01-08 11:03:00,
2013-01-08 06:08:00,31.7,21.6,30.22,SW,225,0.0,3.4,66,0.00,,,0.00,WUHU216HW,2013-01-08 11:08:00,
2013-01-08 06:13:00,31.5,21.8,30.22,SE,135,0.0,1.3,67,0.00,,,0.00,WUHU216HW,2013-01-08 11:13:00,
2013-01-08 06:18:00,31.5,21.4,30.22,North,0,0.0,1.3,66,0.00,,,0.00,WUHU216HW,2013-01-08 11:18:00,
2013-01-08 06:23:00,31.3,21.6,30.22,WSW,248,0.0,1.1,67,0.00,,,0.00,WUHU216HW,2013-01-08 11:23:00,
2013-01-08 06:28:00,31.1,21.4,30.22,NE,45,0.7,0.9,67,0.00,,,0.00,WUHU216HW,2013-01-08 11:28:00,
2013-01-08 06:33:00,31.1,21.4,30.23,South,180,0.0,1.1,67,0.00,,,0.00,WUHU216HW,2013-01-08 11:33:00,
2013-01-08 06:38:00,31.0,21.2,30.23,SSE,158,0.0,1.1,67,0.00,,,0.00,WUHU216HW,2013-01-08 11:38:00,
2013-01-08 06:43:00,31.0,21.2,30.23,WSW,248,0.0,0.4,67,0.00,,,0.00,WUHU216HW,2013-01-08 11:43:00,
2013-01-08 06:48:00,31.0,21.2,30.23,NE,45,0.0,0.9,67,0.00,,,0.00,WUHU216HW,2013-01-08 11:48:00,
2013-01-08 06:53:00,30.8,21.1,30.23,South,180,0.2,0.9,67,0.00,,,0.00,WUHU216HW,2013-01-08 11:53:00,
2013-01-08 06:58:00,31.0,21.2,30.23,SSW,203,0.0,0.9,67,0.00,,,0.00,WUHU216HW,2013-01-08 11:58:00,
2013-01-08 07:03:00,31.0,21.2,30.24,NNW,338,0.0,0.9,67,0.00,,,0.00,WUHU216HW,2013-01-08 12:03:00,
2013-01-08 07:08:00,31.0,21.2,30.23,NNW,338,0.0,0.9,67,0.00,,,0.00,WUHU216HW,2013-01-08 12:08:00,
2013-01-08 07:13:00,31.0,21.2,30.23,NNW,338,0.4,0.9,67,0.00,,,0.00,WUHU216HW,2013-01-08 12:13:00,
2013-01-08 07:18:00,31.0,20.9,30.24,North,0,0.0,0.9,66,0.00,,,0.00,WUHU216HW,2013-01-08 12:18:00,
2013-01-08 07:23:00,31.0,20.9,30.24,WNW,293,1.1,1.1,66,0.00,,,0.00,WUHU216HW,2013-01-08 12:23:00,
2013-01-08 07:28:00,31.0,20.9,30.25,SE,135,0.0,1.8,66,0.00,,,0.00,WUHU216HW,2013-01-08 12:28:00,
2013-01-08 07:33:00,31.1,21.1,30.25,NNW,338,0.0,1.8,66,0.00,,,0.00,WUHU216HW,2013-01-08 12:33:00,
2013-01-08 07:38:00,31.1,21.1,30.24,SW,225,0.0,1.3,66,0.00,,,0.00,WUHU216HW,2013-01-08 12:38:00,
2013-01-08 07:43:00,31.1,21.1,30.24,NNE,23,0.7,1.3,66,0.00,,,0.00,WUHU216HW,2013-01-08 12:43:00,
2013-01-08 07:48:00,31.1,21.1,30.25,WNW,293,0.7,2.5,66,0.00,,,0.00,WUHU216HW,2013-01-08 12:48:00,
2013-01-08 07:53:00,31.3,21.2,30.25,SSW,203,0.9,2.5,66,0.00,,,0.00,WUHU216HW,2013-01-08 12:53:00,
2013-01-08 07:58:00,31.1,21.1,30.25,West,270,0.0,1.1,66,0.00,,,0.00,WUHU216HW,2013-01-08 12:58:00,
2013-01-08 08:03:00,31.1,21.1,30.25,SSW,203,0.7,1.3,66,0.00,,,0.00,WUHU216HW,2013-01-08 13:03:00,
2013-01-08 08:08:00,31.3,21.6,30.25,SE,135,0.0,1.3,67,0.00,,,0.00,WUHU216HW,2013-01-08 13:08:00,
2013-01-08 08:13:00,31.3,21.6,30.25,South,180,0.7,1.1,67,0.00,,,0.00,WUHU216HW,2013-01-08 13:13:00,
2013-01-08 08:18:00,31.3,21.6,30.25,NNE,23,0.0,0.7,67,0.00,,,0.00,WUHU216HW,2013-01-08 13:18:00,
2013-01-08 08:23:00,31.3,21.6,30.26,North,0,0.0,1.1,67,0.00,,,0.00,WUHU216HW,2013-01-08 13:23:00,
2013-01-08 08:28:00,31.5,21.4,30.26,West,270,0.4,1.1,66,0.00,,,0.00,WUHU216HW,2013-01-08 13:28:00,
2013-01-08 08:33:00,31.5,21.4,30.26,NNW,338,0.4,1.1,66,0.00,,,0.00,WUHU216HW,2013-01-08 13:33:00,
2013-01-08 08:38:00,31.7,22.0,30.26,NNW,338,0.0,1.1,67,0.00,,,0.00,WUHU216HW,2013-01-08 13:38:00,
2013-01-08 08:43:00,31.7,22.0,30.27,SSE,158,0.0,2.2,67,0.00,,,0.00,WUHU216HW,2013-01-08 13:43:00,
2013-01-08 08:48:00,31.5,21.8,30.27,SW,225,0.0,2.2,67,0.00,,,0.00,WUHU216HW,2013-01-08 13:48:00,
2013-01-08 08:53:00,31.5,21.8,30.27,NNW,338,0.0,0.7,67,0.00,,,0.00,WUHU216HW,2013-01-08 13:53:00,
2013-01-08 08:58:00,31.5,21.8,30.27,NNE,23,0.0,0.4,67,0.00,,,0.00,WUHU216HW,2013-01-08 13:58:00,
2013-01-08 09:03:00,31.7,22.3,30.27,South,180,0.7,1.3,68,0.00,,,0.00,WUHU216HW,2013-01-08 14:03:00,
2013-01-08 09:08:00,31.7,22.3,30.27,NW,315,0.0,1.3,68,0.00,,,0.00,WUHU216HW,2013-01-08 14:08:00,
2013-01-08 09:13:00,31.7,22.3,30.28,WSW,248,0.0,0.9,68,0.00,,,0.00,WUHU216HW,2013-01-08 14:13:00,
2013-01-08 09:18:00,31.7,21.6,30.28,NW,315,1.1,1.1,66,0.00,,,0.00,WUHU216HW,2013-01-08 14:18:00,
2013-01-08 09:23:00,31.9,22.5,30.28,NNW,338,0.0,1.1,68,0.00,,,0.00,WUHU216HW,2013-01-08 14:23:00,
2013-01-08 09:28:00,31.9,22.5,30.28,West,270,0.0,1.1,68,0.00,,,0.00,WUHU216HW,2013-01-08 14:28:00,
2013-01-08 09:33:00,31.9,22.5,30.28,North,0,1.8,1.8,68,0.00,,,0.00,WUHU216HW,2013-01-08 14:33:00,
2013-01-08 09:38:00,31.9,22.5,30.28,NNE,23,0.0,1.8,68,0.00,,,0.00,WUHU216HW,2013-01-08 14:38:00,
2013-01-08 09:43:00,32.0,22.7,30.29,NW,315,0.0,2.2,68,0.00,,,0.00,WUHU216HW,2013-01-08 14:43:00,
2013-01-08 09:48:00,32.0,22.7,30.29,West,270,0.7,2.2,68,0.00,,,0.00,WUHU216HW,2013-01-08 14:48:00,
2013-01-08 09:53:00,32.2,22.9,30.29,NNW,338,0.0,0.7,68,0.00,,,0.00,WUHU216HW,2013-01-08 14:53:00,
2013-01-08 09:58:00,32.4,23.1,30.29,NNW,338,0.0,1.3,68,0.00,,,0.00,WUHU216HW,2013-01-08 14:58:00,
2013-01-08 10:03:00,32.6,23.5,30.29,SW,225,0.9,1.3,69,0.00,,,0.00,WUHU216HW,2013-01-08 15:03:00,
2013-01-08 10:08:00,32.8,23.3,30.29,West,270,0.9,2.0,68,0.00,,,0.00,WUHU216HW,2013-01-08 15:08:00,
2013-01-08 10:13:00,32.9,23.5,30.29,West,270,1.6,2.0,68,0.00,,,0.00,WUHU216HW,2013-01-08 15:13:00,
2013-01-08 10:18:00,33.1,23.7,30.29,NNE,23,0.7,1.8,68,0.00,,,0.00,WUHU216HW,2013-01-08 15:18:00,
2013-01-08 10:23:00,33.5,23.6,30.29,WSW,248,0.0,2.5,67,0.00,,,0.00,WUHU216HW,2013-01-08 15:23:00,
2013-01-08 10:28:00,33.5,23.9,30.30,SE,135,0.4,2.5,68,0.00,,,0.00,WUHU216HW,2013-01-08 15:28:00,
2013-01-08 10:33:00,33.7,23.8,30.29,NNW,338,0.7,2.5,67,0.00,,,0.00,WUHU216HW,2013-01-08 15:33:00,
2013-01-08 10:38:00,34.0,24.1,30.29,NNW,338,1.6,5.1,67,0.00,,,0.00,WUHU216HW,2013-01-08 15:38:00,
2013-01-08 10:43:00,34.2,24.3,30.29,West,270,0.9,5.1,67,0.00,,,0.00,WUHU216HW,2013-01-08 15:43:00,
2013-01-08 10:48:00,34.2,24.3,30.29,NW,315,1.1,3.4,67,0.00,,,0.00,WUHU216HW,2013-01-08 15:48:00,
2013-01-08 10:53:00,34.6,24.3,30.29,WNW,293,1.8,2.9,66,0.00,,,0.00,WUHU216HW,2013-01-08 15:53:00,
2013-01-08 10:58:00,34.7,24.5,30.29,NW,315,3.4,3.4,66,0.00,,,0.00,WUHU216HW,2013-01-08 15:58:00,
2013-01-08 11:03:00,34.9,24.7,30.29,WNW,293,2.2,3.4,66,0.00,,,0.00,WUHU216HW,2013-01-08 16:03:00,
2013-01-08 11:08:00,35.3,25.0,30.29,NW,315,3.1,3.6,66,0.00,,,0.00,WUHU216HW,2013-01-08 16:08:00,
2013-01-08 11:13:00,35.3,24.7,30.29,NNW,338,1.1,3.6,65,0.00,,,0.00,WUHU216HW,2013-01-08 16:13:00,
2013-01-08 11:18:00,35.5,25.2,30.29,NNE,23,2.5,3.6,66,0.00,,,0.00,WUHU216HW,2013-01-08 16:18:00,
2013-01-08 11:23:00,35.8,24.9,30.29,NNW,338,0.7,3.4,64,0.00,,,0.00,WUHU216HW,2013-01-08 16:23:00,
2013-01-08 11:28:00,35.8,25.2,30.29,NW,315,0.7,3.4,65,0.00,,,0.00,WUHU216HW,2013-01-08 16:28:00,
2013-01-08 11:33:00,35.8,25.2,30.29,NW,315,0.9,3.1,65,0.00,,,0.00,WUHU216HW,2013-01-08 16:33:00,
2013-01-08 11:38:00,36.0,25.4,30.29,NW,315,1.8,3.1,65,0.00,,,0.00,WUHU216HW,2013-01-08 16:38:00,
2013-01-08 11:43:00,36.0,25.4,30.29,NNW,338,0.9,2.5,65,0.00,,,0.00,WUHU216HW,2013-01-08 16:43:00,
2013-01-08 11:48:00,36.2,25.6,30.29,WNW,293,1.3,2.5,65,0.00,,,0.00,WUHU216HW,2013-01-08 16:48:00,
2013-01-08 11:53:00,36.2,25.6,30.29,NW,315,1.1,2.5,65,0.00,,,0.00,WUHU216HW,2013-01-08 16:53:00,
2013-01-08 11:58:00,36.4,25.8,30.29,NW,315,1.8,2.5,65,0.00,,,0.00,WUHU216HW,2013-01-08 16:58:00,
2013-01-08 12:03:00,36.4,25.8,30.29,NNW,338,1.3,2.2,65,0.00,,,0.00,WUHU216HW,2013-01-08 17:03:00,
2013-01-08 12:08:00,36.5,25.9,30.29,NW,315,2.5,2.5,65,0.00,,,0.00,WUHU216HW,2013-01-08 17:08:00,
2013-01-08 12:13:00,36.7,26.5,30.29,WNW,293,0.9,2.5,66,0.00,,,0.00,WUHU216HW,2013-01-08 17:13:00,
2013-01-08 12:18:00,36.7,26.0,30.29,NW,315,0.4,2.7,65,0.00,,,0.00,WUHU216HW,2013-01-08 17:18:00,
2013-01-08 12:23:00,36.7,26.0,30.29,NW,315,1.8,2.7,65,0.00,,,0.00,WUHU216HW,2013-01-08 17:23:00,
2013-01-08 12:28:00,36.7,26.0,30.28,NW,315,3.4,3.4,65,0.00,,,0.00,WUHU216HW,2013-01-08 17:28:00,
2013-01-08 12:33:00,36.7,25.7,30.28,North,0,1.1,3.4,64,0.00,,,0.00,WUHU216HW,2013-01-08 17:33:00,
2013-01-08 12:38:00,37.1,26.4,30.28,NNW,338,1.8,2.9,65,0.00,,,0.00,WUHU216HW,2013-01-08 17:38:00,
2013-01-08 12:43:00,37.1,26.0,30.28,NNW,338,1.1,2.9,64,0.00,,,0.00,WUHU216HW,2013-01-08 17:43:00,
2013-01-08 12:48:00,37.1,25.7,30.28,North,0,1.1,1.8,63,0.00,,,0.00,WUHU216HW,2013-01-08 17:48:00,
2013-01-08 12:53:00,37.3,26.6,30.28,North,0,0.4,2.0,65,0.00,,,0.00,WUHU216HW,2013-01-08 17:53:00,
2013-01-08 12:58:00,37.3,25.8,30.28,SSE,158,0.4,2.2,63,0.00,,,0.00,WUHU216HW,2013-01-08 17:58:00,
2013-01-08 13:03:00,37.3,26.2,30.28,NNW,338,1.8,2.2,64,0.00,,,0.00,WUHU216HW,2013-01-08 18:03:00,
2013-01-08 13:08:00,37.3,26.2,30.28,WNW,293,0.7,2.2,64,0.00,,,0.00,WUHU216HW,2013-01-08 18:08:00,
2013-01-08 13:13:00,37.3,26.2,30.28,NNW,338,0.9,2.2,64,0.00,,,0.00,WUHU216HW,2013-01-08 18:13:00,
2013-01-08 13:18:00,37.4,26.4,30.28,NW,315,1.1,1.8,64,0.00,,,0.00,WUHU216HW,2013-01-08 18:18:00,
2013-01-08 13:23:00,37.4,26.4,30.28,WNW,293,1.8,2.9,64,0.00,,,0.00,WUHU216HW,2013-01-08 18:23:00,
2013-01-08 13:28:00,37.8,27.1,30.28,West,270,1.1,2.9,65,0.00,,,0.00,WUHU216HW,2013-01-08 18:28:00,
2013-01-08 13:33:00,38.0,27.2,30.28,NW,315,0.4,1.8,65,0.00,,,0.00,WUHU216HW,2013-01-08 18:33:00,
2013-01-08 13:38:00,38.2,27.0,30.28,NW,315,1.8,1.8,64,0.00,,,0.00,WUHU216HW,2013-01-08 18:38:00,
2013-01-08 13:43:00,38.2,26.7,30.28,North,0,1.1,4.0,63,0.00,,,0.00,WUHU216HW,2013-01-08 18:43:00,
2013-01-08 13:48:00,38.3,26.8,30.28,NNW,338,1.3,4.0,63,0.00,,,0.00,WUHU216HW,2013-01-08 18:48:00,
2013-01-08 13:53:00,38.3,26.8,30.28,WNW,293,1.1,2.0,63,0.00,,,0.00,WUHU216HW,2013-01-08 18:53:00,
2013-01-08 13:58:00,38.5,26.9,30.29,South,180,0.4,2.2,63,0.00,,,0.00,WUHU216HW,2013-01-08 18:58:00,
2013-01-08 14:03:00,38.5,26.9,30.29,NNW,338,1.6,3.1,63,0.00,,,0.00,WUHU216HW,2013-01-08 19:03:00,
2013-01-08 14:08:00,38.7,27.1,30.29,NNW,338,1.3,3.1,63,0.00,,,0.00,WUHU216HW,2013-01-08 19:08:00,
2013-01-08 14:13:00,38.9,27.3,30.28,NE,45,0.4,3.4,63,0.00,,,0.00,WUHU216HW,2013-01-08 19:13:00,
2013-01-08 14:18:00,39.1,27.5,30.28,West,270,3.6,3.6,63,0.00,,,0.00,WUHU216HW,2013-01-08 19:18:00,
2013-01-08 14:23:00,39.1,27.5,30.29,NW,315,1.1,3.6,63,0.00,,,0.00,WUHU216HW,2013-01-08 19:23:00,
2013-01-08 14:28:00,39.2,27.6,30.29,North,0,0.2,2.0,63,0.00,,,0.00,WUHU216HW,2013-01-08 19:28:00,
2013-01-08 14:33:00,39.4,27.4,30.29,NNE,23,2.5,2.5,62,0.00,,,0.00,WUHU216HW,2013-01-08 19:33:00,
2013-01-08 14:38:00,39.6,28.0,30.29,NNW,338,0.0,2.5,63,0.00,,,0.00,WUHU216HW,2013-01-08 19:38:00,
2013-01-08 14:43:00,39.8,28.2,30.29,South,180,0.0,1.8,63,0.00,,,0.00,WUHU216HW,2013-01-08 19:43:00,
2013-01-08 14:48:00,39.6,28.0,30.29,West,270,0.0,0.4,63,0.00,,,0.00,WUHU216HW,2013-01-08 19:48:00,
2013-01-08 14:53:00,39.4,27.4,30.29,SW,225,0.0,0.9,62,0.00,,,0.00,WUHU216HW,2013-01-08 19:53:00,
2013-01-08 14:58:00,39.2,27.2,30.29,SE,135,0.7,0.9,62,0.00,,,0.00,WUHU216HW,2013-01-08 19:58:00,
2013-01-08 15:03:00,39.2,27.6,30.29,WSW,248,0.0,0.7,63,0.00,,,0.00,WUHU216HW,2013-01-08 20:03:00,
2013-01-08 15:08:00,39.2,27.6,30.29,SE,135,0.0,0.7,63,0.00,,,0.00,WUHU216HW,2013-01-08 20:08:00,
2013-01-08 15:13:00,39.2,27.6,30.29,NW,315,0.0,1.1,63,0.00,,,0.00,WUHU216HW,2013-01-08 20:13:00,
2013-01-08 15:18:00,39.2,27.2,30.30,SE,135,0.0,1.1,62,0.00,,,0.00,WUHU216HW,2013-01-08 20:18:00,
2013-01-08 15:23:00,39.2,27.6,30.30,NW,315,0.0,0.9,63,0.00,,,0.00,WUHU216HW,2013-01-08 20:23:00,
2013-01-08 15:28:00,38.9,27.3,30.30,SW,225,0.0,1.1,63,0.00,,,0.00,WUHU216HW,2013-01-08 20:28:00,
2013-01-08 15:33:00,38.7,27.1,30.30,SW,225,0.0,1.1,63,0.00,,,0.00,WUHU216HW,2013-01-08 20:33:00,
2013-01-08 15:38:00,38.7,27.1,30.30,WNW,293,0.2,0.2,63,0.00,,,0.00,WUHU216HW,2013-01-08 20:38:00,
2013-01-08 15:43:00,38.5,26.9,30.31,NNW,338,0.0,0.2,63,0.00,,,0.00,WUHU216HW,2013-01-08 20:43:00,
2013-01-08 15:48:00,38.5,26.9,30.31,NNW,338,0.0,0.0,63,0.00,,,0.00,WUHU216HW,2013-01-08 20:48:00,
2013-01-08 15:53:00,38.3,26.8,30.31,North,0,0.0,0.0,63,0.00,,,0.00,WUHU216HW,2013-01-08 20:53:00,
2013-01-08 15:58:00,38.3,26.8,30.31,North,0,0.0,0.0,63,0.00,,,0.00,WUHU216HW,2013-01-08 20:58:00,
2013-01-08 16:03:00,38.2,27.0,30.31,North,0,0.0,0.0,64,0.00,,,0.00,WUHU216HW,2013-01-08 21:03:00,
2013-01-08 16:08:00,38.0,26.8,30.31,North,0,0.0,0.0,64,0.00,,,0.00,WUHU216HW,2013-01-08 21:08:00,
2013-01-08 16:13:00,37.8,27.1,30.31,North,0,0.0,0.0,65,0.00,,,0.00,WUHU216HW,2013-01-08 21:13:00,
2013-01-08 16:18:00,37.6,26.9,30.31,North,0,0.0,0.0,65,0.00,,,0.00,WUHU216HW,2013-01-08 21:18:00,
2013-01-08 16:23:00,37.4,26.7,30.32,North,0,0.0,0.0,65,0.00,,,0.00,WUHU216HW,2013-01-08 21:23:00,
2013-01-08 16:28:00,37.1,26.7,30.32,North,0,0.0,0.0,66,0.00,,,0.00,WUHU216HW,2013-01-08 21:28:00,
2013-01-08 16:33:00,36.9,26.6,30.31,North,0,0.0,0.0,66,0.00,,,0.00,WUHU216HW,2013-01-08 21:33:00,
2013-01-08 16:38:00,36.7,26.5,30.31,North,0,0.0,0.0,66,0.00,,,0.00,WUHU216HW,2013-01-08 21:38:00,
2013-01-08 16:43:00,36.7,26.8,30.32,North,0,0.0,0.0,67,0.00,,,0.00,WUHU216HW,2013-01-08 21:43:00,
2013-01-08 16:48:00,36.4,26.5,30.32,North,0,0.0,0.0,67,0.00,,,0.00,WUHU216HW,2013-01-08 21:48:00,
2013-01-08 16:53:00,36.2,26.3,30.32,North,0,0.0,0.0,67,0.00,,,0.00,WUHU216HW,2013-01-08 21:53:00,
2013-01-08 16:58:00,35.8,25.9,30.32,North,0,0.0,0.0,67,0.00,,,0.00,WUHU216HW,2013-01-08 21:58:00,
2013-01-08 17:03:00,35.6,25.7,30.32,North,0,0.0,0.0,67,0.00,,,0.00,WUHU216HW,2013-01-08 22:03:00,
2013-01-08 17:08:00,35.3,25.4,30.32,North,0,0.0,0.0,67,0.00,,,0.00,WUHU216HW,2013-01-08 22:08:00,
2013-01-08 17:13:00,35.1,25.6,30.32,North,0,0.0,0.0,68,0.00,,,0.00,WUHU216HW,2013-01-08 22:13:00,
2013-01-08 17:18:00,34.9,25.7,30.32,North,0,0.0,0.0,69,0.00,,,0.00,WUHU216HW,2013-01-08 22:18:00,
2013-01-08 17:23:00,34.6,25.4,30.33,North,0,0.0,0.0,69,0.00,,,0.00,WUHU216HW,2013-01-08 22:23:00,
2013-01-08 17:28:00,34.4,25.6,30.33,North,0,0.0,0.0,70,0.00,,,0.00,WUHU216HW,2013-01-08 22:28:00,
2013-01-08 17:33:00,34.2,25.0,30.33,North,0,0.0,0.0,69,0.00,,,0.00,WUHU216HW,2013-01-08 22:33:00,
2013-01-08 17:38:00,33.8,25.0,30.33,North,0,0.0,0.0,70,0.00,,,0.00,WUHU216HW,2013-01-08 22:38:00,
2013-01-08 17:43:00,33.7,24.8,30.33,North,0,0.0,0.0,70,0.00,,,0.00,WUHU216HW,2013-01-08 22:43:00,
2013-01-08 17:48:00,33.3,24.6,30.33,North,0,0.0,0.0,70,0.00,,,0.00,WUHU216HW,2013-01-08 22:48:00,
2013-01-08 17:53:00,33.1,24.4,30.33,North,0,0.0,0.0,70,0.00,,,0.00,WUHU216HW,2013-01-08 22:53:00,
2013-01-08 17:58:00,32.8,24.4,30.33,North,0,0.0,0.0,71,0.00,,,0.00,WUHU216HW,2013-01-08 22:58:00,
2013-01-08 18:03:00,32.8,24.4,30.33,North,0,0.0,0.0,71,0.00,,,0.00,WUHU216HW,2013-01-08 23:03:00,
2013-01-08 18:08:00,32.8,24.4,30.33,North,0,0.0,0.0,71,0.00,,,0.00,WUHU216HW,2013-01-08 23:08:00,
2013-01-08 18:13:00,32.6,24.2,30.33,North,0,0.0,0.0,71,0.00,,,0.00,WUHU216HW,2013-01-08 23:13:00,
2013-01-08 18:18:00,32.2,23.9,30.33,North,0,0.0,0.0,71,0.00,,,0.00,WUHU216HW,2013-01-08 23:18:00,
2013-01-08 18:23:00,32.0,23.8,30.33,North,0,0.0,0.0,71,0.00,,,0.00,WUHU216HW,2013-01-08 23:23:00,
2013-01-08 18:28:00,31.9,23.9,30.33,North,0,0.0,0.0,72,0.00,,,0.00,WUHU216HW,2013-01-08 23:28:00,
2013-01-08 18:33:00,31.7,23.7,30.33,North,0,0.0,0.0,72,0.00,,,0.00,WUHU216HW,2013-01-08 23:33:00,
2013-01-08 18:38:00,31.3,23.7,30.33,North,0,0.0,0.0,73,0.00,,,0.00,WUHU216HW,2013-01-08 23:38:00,
2013-01-08 18:43:00,31.3,23.7,30.33,North,0,0.0,0.0,73,0.00,,,0.00,WUHU216HW,2013-01-08 23:43:00,
2013-01-08 18:48:00,31.1,23.5,30.33,North,0,0.0,0.0,73,0.00,,,0.00,WUHU216HW,2013-01-08 23:48:00,
2013-01-08 18:53:00,31.0,23.6,30.33,North,0,0.0,0.0,74,0.00,,,0.00,WUHU216HW,2013-01-08 23:53:00,
2013-01-08 18:58:00,31.0,23.3,30.33,North,0,0.0,0.0,73,0.00,,,0.00,WUHU216HW,2013-01-08 23:58:00,
2013-01-08 19:03:00,30.6,23.2,30.33,North,0,0.0,0.0,74,0.00,,,0.00,WUHU216HW,2013-01-09 00:03:00,
2013-01-08 19:08:00,30.6,23.2,30.33,North,0,0.0,0.0,74,0.00,,,0.00,WUHU216HW,2013-01-09 00:08:00,
2013-01-08 19:13:00,30.4,23.0,30.33,North,0,0.0,0.0,74,0.00,,,0.00,WUHU216HW,2013-01-09 00:13:00,
2013-01-08 19:18:00,30.2,23.2,30.33,North,0,0.0,0.0,75,0.00,,,0.00,WUHU216HW,2013-01-09 00:18:00,
2013-01-08 19:23:00,30.1,23.0,30.33,North,0,0.0,0.0,75,0.00,,,0.00,WUHU216HW,2013-01-09 00:23:00,
2013-01-08 19:28:00,29.9,22.9,30.33,North,0,0.0,0.0,75,0.00,,,0.00,WUHU216HW,2013-01-09 00:28:00,
2013-01-08 19:33:00,29.9,23.2,30.33,North,0,0.0,0.0,76,0.00,,,0.00,WUHU216HW,2013-01-09 00:33:00,
2013-01-08 19:38:00,29.9,23.2,30.33,North,0,0.0,0.0,76,0.00,,,0.00,WUHU216HW,2013-01-09 00:38:00,
2013-01-08 19:43:00,29.9,23.2,30.33,North,0,0.0,0.0,76,0.00,,,0.00,WUHU216HW,2013-01-09 00:43:00,
2013-01-08 19:48:00,29.9,22.9,30.33,North,0,0.0,0.0,75,0.00,,,0.00,WUHU216HW,2013-01-09 00:48:00,
2013-01-08 19:53:00,29.9,22.9,30.33,North,0,0.0,0.0,75,0.00,,,0.00,WUHU216HW,2013-01-09 00:53:00,
2013-01-08 19:58:00,29.9,22.9,30.33,North,0,0.0,0.0,75,0.00,,,0.00,WUHU216HW,2013-01-09 00:58:00,
2013-01-08 20:03:00,29.5,22.5,30.33,East,90,0.0,0.0,75,0.00,,,0.00,WUHU216HW,2013-01-09 01:03:00,
2013-01-08 20:08:00,29.2,22.2,30.33,East,90,0.0,0.0,75,0.00,,,0.00,WUHU216HW,2013-01-09 01:08:00,
2013-01-08 20:13:00,29.2,22.2,30.33,East,90,0.0,0.0,75,0.00,,,0.00,WUHU216HW,2013-01-09 01:13:00,
2013-01-08 20:18:00,29.2,22.5,30.33,East,90,0.0,0.0,76,0.00,,,0.00,WUHU216HW,2013-01-09 01:18:00,
2013-01-08 20:23:00,29.2,22.5,30.33,East,90,0.0,0.0,76,0.00,,,0.00,WUHU216HW,2013-01-09 01:23:00,
2013-01-08 20:28:00,29.2,22.5,30.33,East,90,0.0,0.0,76,0.00,,,0.00,WUHU216HW,2013-01-09 01:28:00,
2013-01-08 20:33:00,29.0,22.3,30.33,East,90,0.0,0.0,76,0.00,,,0.00,WUHU216HW,2013-01-09 01:33:00,
2013-01-08 20:38:00,29.0,22.3,30.33,East,90,0.0,0.0,76,0.00,,,0.00,WUHU216HW,2013-01-09 01:38:00,
2013-01-08 20:43:00,29.0,22.3,30.33,East,90,0.0,0.0,76,0.00,,,0.00,WUHU216HW,2013-01-09 01:43:00,
2013-01-08 20:48:00,28.8,22.1,30.33,East,90,0.0,0.0,76,0.00,,,0.00,WUHU216HW,2013-01-09 01:48:00,
2013-01-08 20:53:00,28.8,22.1,30.33,East,90,0.0,0.0,76,0.00,,,0.00,WUHU216HW,2013-01-09 01:53:00,
2013-01-08 20:58:00,28.8,22.1,30.32,East,90,0.0,0.0,76,0.00,,,0.00,WUHU216HW,2013-01-09 01:58:00,
2013-01-08 21:03:00,28.6,22.0,30.32,East,90,0.0,0.0,76,0.00,,,0.00,WUHU216HW,2013-01-09 02:03:00,
2013-01-08 21:08:00,28.4,21.8,30.32,East,90,0.0,0.0,76,0.00,,,0.00,WUHU216HW,2013-01-09 02:08:00,
2013-01-08 21:13:00,28.4,21.8,30.32,East,90,0.0,0.0,76,0.00,,,0.00,WUHU216HW,2013-01-09 02:13:00,
2013-01-08 21:18:00,28.3,21.6,30.32,East,90,0.0,0.0,76,0.00,,,0.00,WUHU216HW,2013-01-09 02:18:00,
2013-01-08 21:23:00,27.7,21.1,30.32,East,90,0.0,0.0,76,0.00,,,0.00,WUHU216HW,2013-01-09 02:23:00,
2013-01-08 21:28:00,27.7,21.4,30.32,East,90,0.0,0.0,77,0.00,,,0.00,WUHU216HW,2013-01-09 02:28:00,
2013-01-08 21:33:00,27.2,20.9,30.31,East,90,0.0,0.0,77,0.00,,,0.00,WUHU216HW,2013-01-09 02:33:00,
2013-01-08 21:38:00,26.8,20.5,30.31,ESE,113,0.0,0.0,77,0.00,,,0.00,WUHU216HW,2013-01-09 02:38:00,
2013-01-08 21:43:00,26.8,20.8,30.31,ESE,113,0.0,0.0,78,0.00,,,0.00,WUHU216HW,2013-01-09 02:43:00,
2013-01-08 21:48:00,27.0,21.0,30.31,ESE,113,0.0,0.0,78,0.00,,,0.00,WUHU216HW,2013-01-09 02:48:00,
2013-01-08 21:53:00,27.0,21.0,30.31,SE,135,0.0,0.0,78,0.00,,,0.00,WUHU216HW,2013-01-09 02:53:00,
2013-01-08 21:58:00,27.0,21.0,30.31,SE,135,0.0,0.0,78,0.00,,,0.00,WUHU216HW,2013-01-09 02:58:00,
2013-01-08 22:03:00,26.8,20.8,30.32,SE,135,0.0,0.0,78,0.00,,,0.00,WUHU216HW,2013-01-09 03:03:00,
2013-01-08 22:08:00,26.8,20.8,30.32,SE,135,0.0,0.0,78,0.00,,,0.00,WUHU216HW,2013-01-09 03:08:00,
2013-01-08 22:13:00,27.0,21.0,30.32,SE,135,0.0,0.0,78,0.00,,,0.00,WUHU216HW,2013-01-09 03:13:00,
2013-01-08 22:18:00,27.0,21.3,30.33,SE,135,0.4,0.7,79,0.00,,,0.00,WUHU216HW,2013-01-09 03:18:00,
2013-01-08 22:23:00,26.6,21.0,30.33,SSE,158,0.0,0.7,79,0.00,,,0.00,WUHU216HW,2013-01-09 03:23:00,
2013-01-08 22:28:00,26.6,21.0,30.33,SSE,158,0.0,0.7,79,0.00,,,0.00,WUHU216HW,2013-01-09 03:28:00,
2013-01-08 22:33:00,26.6,21.0,30.32,SSE,158,0.0,0.2,79,0.00,,,0.00,WUHU216HW,2013-01-09 03:33:00,
2013-01-08 22:38:00,26.8,21.2,30.32,SSE,158,0.0,0.0,79,0.00,,,0.00,WUHU216HW,2013-01-09 03:38:00,
2013-01-08 22:43:00,27.0,21.3,30.32,SSE,158,0.0,0.0,79,0.00,,,0.00,WUHU216HW,2013-01-09 03:43:00,
2013-01-08 22:48:00,27.0,21.3,30.32,SSE,158,0.0,0.0,79,0.00,,,0.00,WUHU216HW,2013-01-09 03:48:00,
2013-01-08 22:53:00,27.0,21.3,30.32,SSE,158,0.0,0.0,79,0.00,,,0.00,WUHU216HW,2013-01-09 03:53:00,
2013-01-08 22:58:00,27.0,21.3,30.32,SSE,158,0.0,0.0,79,0.00,,,0.00,WUHU216HW,2013-01-09 03:58:00,
2013-01-08 23:03:00,26.6,21.0,30.32,SSE,158,0.0,0.0,79,0.00,,,0.00,WUHU216HW,2013-01-09 04:03:00,
2013-01-08 23:08:00,26.6,21.0,30.32,SSE,158,0.0,0.0,79,0.00,,,0.00,WUHU216HW,2013-01-09 04:08:00,
2013-01-08 23:13:00,26.8,21.2,30.31,SSE,158,0.4,0.4,79,0.00,,,0.00,WUHU216HW,2013-01-09 04:13:00,
2013-01-08 23:18:00,27.0,21.3,30.31,SSE,158,0.0,0.4,79,0.00,,,0.00,WUHU216HW,2013-01-09 04:18:00,
2013-01-08 23:23:00,27.0,21.3,30.31,SSE,158,0.0,0.0,79,0.00,,,0.00,WUHU216HW,2013-01-09 04:23:00,
2013-01-08 23:28:00,26.8,21.2,30.31,SSE,158,0.0,0.0,79,0.00,,,0.00,WUHU216HW,2013-01-09 04:28:00,
2013-01-08 23:33:00,26.8,21.2,30.31,SSE,158,0.0,0.2,79,0.00,,,0.00,WUHU216HW,2013-01-09 04:33:00,
2013-01-08 23:38:00,26.8,21.2,30.30,SSE,158,0.0,0.2,79,0.00,,,0.00,WUHU216HW,2013-01-09 04:38:00,
2013-01-08 23:43:00,26.5,20.8,30.30,SSE,158,0.0,0.0,79,0.00,,,0.00,WUHU216HW,2013-01-09 04:43:00,
2013-01-08 23:48:00,25.7,20.1,30.30,SSE,158,0.0,0.7,79,0.00,,,0.00,WUHU216HW,2013-01-09 04:48:00,
2013-01-08 23:53:00,25.4,19.8,30.30,SSE,158,0.0,0.7,79,0.00,,,0.00,WUHU216HW,2013-01-09 04:53:00,
2013-01-08 23:58:00,25.6,20.0,30.30,SSE,158,0.0,0.9,79,0.00,,,0.00,WUHU216HW,2013-01-09 04:58:00,